Flag for India Weather past 2 weeks in Dindigul, Tamil Nadu, India

Now
84 °F

Passing clouds.


Feels Like: 90 °F
Forecast: 79 / 101 °F
Wind: No wind

Location: Tiruchchirapalli


UV Index: 10 (Very high)

Visibility: 4 mi


Pressure: 29.80 "Hg

Humidity: 66%

Dew point: 72 °F

Location of DindigulLocation

Historic Weather in Dindigul

°F

Dindigul temperature yesterday

Maximum temperature yesterday: 102 °F (at 2:40 PM)
Minimum temperature yesterday: 79 °F (at 5:40 AM)
Average temperature yesterday: 90 °F

Past Weeks' High & Low Weather Summary

 TemperatureHumidityPressure
High104 °F (Apr 8, 3:40 PM)89% (Apr 3, 4:40 AM)29.98 "Hg (Apr 3, 4:40 AM)
Low77 °F (Apr 3, 4:40 AM)28% (Apr 11, 2:40 PM)29.68 "Hg (Apr 12, 3:40 PM)
Average90 °F58%29.82 "Hg
* Reported Apr 3 12:40 AM — Apr 18 12:40 AM, Dindigul, Weather by CustomWeather, © 2014

Note: Actual official high and low records may vary slightly from our data, if they occured in-between our weather recording intervals... More about our weather records

Advertising

Historic Weather Conditions — Data for Previous 24 hours

 ConditionsComfort  
Time TempWeatherWind HumidityBarometerVisibility
12:40 AM
Apr 18
84 °FPassing clouds.No wind66%29.80 "Hg4 mi
11:40 PM
Apr 17
86 °FPassing clouds.3 mph62%29.80 "Hg4 mi
9:40 PM88 °FPassing clouds.7 mph52%29.80 "Hg4 mi
8:40 PM90 °FPassing clouds.8 mph49%29.77 "Hg4 mi
7:40 PM91 °FPassing clouds.12 mph49%29.71 "Hg4 mi
6:40 PM97 °FPassing clouds.9 mph37%29.68 "Hg4 mi
4:40 PM102 °FPassing clouds.3 mph31%29.68 "Hg5 mi
3:40 PM102 °FScattered clouds.5 mph29%29.68 "Hg5 mi
2:40 PM102 °FScattered clouds.5 mph31%29.71 "Hg5 mi
1:40 PM100 °FScattered clouds.5 mph35%29.74 "Hg5 mi
12:40 PM99 °FScattered clouds.2 mph39%29.77 "Hg5 mi
11:40 AM97 °FPassing clouds.2 mph42%29.83 "Hg4 mi
10:40 AM93 °FPassing clouds.6 mph49%29.83 "Hg4 mi
8:40 AM86 °FHaze.2 mph66%29.83 "Hg2 mi
7:40 AM82 °FHaze.2 mph74%29.83 "Hg2 mi
6:40 AM81 °FHaze.2 mph79%29.80 "Hg2 mi
5:40 AM79 °FHaze.2 mph84%29.80 "Hg2 mi
4:40 AM81 °FHaze.No wind79%29.77 "Hg2 mi
3:40 AM81 °FHaze.2 mph79%29.77 "Hg2 mi
2:40 AM81 °FHaze.2 mph79%29.77 "Hg3 mi
Weather by CustomWeather, © 2014

See weather overview